sat.trackr.live / text

‹ back to catalog

STARLINK-11399 [DTC]

NORAD 63063 · 2025-035M

PAYLOAD ACTIVE UNKNOWN

§ Identity

Operator
Country
US
Launch date
2025-02-21
Launch site
AFETR
Launch vehicle
Mass (kg)
RCS (m²)

Purposes: comms

External: N2YO · Heavens-Above · Gunter

§ Orbital elements

Epoch: 2026-09-20T09:05:01.364928Z

Period
91.67 min
Inclination
43.0009°
Eccentricity
0.0001955
Mean motion
15.70901066 rev/d
Perigee alt
355.0 km
Apogee alt
357.6 km
Semi-major
6,734.5 km
B*
1.1130e-3
RAAN
281.5250°
Arg perigee
250.7216°
Mean anomaly
109.3440°
Rev number
9,184

§ Raw data

STARLINK-11399 [DTC]1 63063U 25035M   26263.37848802  .00145269  00000+0  11130-2 0  99962 63063  43.0009 281.5250 0001955 250.7216 109.3440 15.70901066 91840

JSON: /api/v1/satellites/63063 · /tle

For live sub-satellite position, see the globe view (requires WebGL).

§ Visibility from observer

Set your observer location to see the next 7 days of passes ≥ 10°. The values pass through the URL so the page stays shareable.

No JS? Fill the form by hand. The geolocation button needs JavaScript.